Skip Page Navigation
NASA JPL Caltech
NASA Logo - Jet Propulsion Laboratory + View the NASA Portal
+ Center for Near-Earth Object Studies
JPL Home Earth Solar System Stars & Galaxies Technology
JPL Solar System Dynamics
BODIES ORBITS EPHEMERIDES TOOLS PHYSICAL DATA DISCOVERY FAQ SITE MAP
IMPORTANT: The SSD Announcement email list is now available. Major changes are coming in the near future, including possible hostname and/or URL changes. To be notified of such changes, subscribe to this email list.

Please visit this page for more details.


JPL Small-Body Database Browser
Search: [ help ]  
48007 (2001 BH67)
Classification: Main-belt Asteroid          SPK-ID: 2048007
Ephemeris | Orbit Diagram | Orbital Elements | Mission Design | Physical Parameters | Discovery Circumstances ]

[ show orbit diagram ]
Orbital Elements at Epoch 2458600.5 (2019-Apr-27.0) TDB
Reference: JPL 25 (heliocentric ecliptic J2000)
 Element Value Uncertainty (1-sigma)   Units 
e .1507982595862974 3.9779e-08  
a 2.384472611813504 1.0605e-08 au
q 2.024898291920835 9.5628e-08 au
i 13.185140821669 4.2489e-06 deg
node 14.51798335898449 1.6901e-05 deg
peri 235.3039353762903 2.2454e-05 deg
M 283.397852242515 1.7531e-05 deg
tp 2458886.670841305837
(2020-Feb-07.17084131)
6.6222e-05 TDB
period 1344.890527041844
3.68
8.9722e-06
2.456e-08
d
yr
n .2676797797006114 1.7858e-09 deg/d
Q 2.744046931706173 1.2204e-08 au
  Orbit Determination Parameters
   # obs. used (total)      1438  
   data-arc span      14622 days (40.03 yr)  
   first obs. used      1979-04-26  
   last obs. used      2019-05-08  
   planetary ephem.      DE431  
   SB-pert. ephem.      SB431-N16  
   condition code      0  
   norm. resid. RMS      .4861  
   source      ORB  
   producer      Otto Matic  
   solution date      2019-May-30 04:36:49  

Additional Information
 Earth MOID = 1.0432 au 
 Jupiter MOID = 2.33815 au 
 T_jup = 3.485 
[ show covariance matrix ]

Ephemeris | Orbit Diagram | Orbital Elements | Mission Design | Physical Parameters | Discovery Circumstances ]

Physical Parameter Table
Parameter Symbol Value Units Sigma Reference Notes
absolute magnitude H 14.0   n/a MPO319657  
diameter diameter 6.704 km 1.637 urn:nasa:pds:neowise_diameters_albedos::2.0[mainbelt] (http://adsabs.harvard.edu/abs/2017AJ....154..168M)  
geometric albedo albedo 0.079   0.069 urn:nasa:pds:neowise_diameters_albedos::2.0[mainbelt] (http://adsabs.harvard.edu/abs/2017AJ....154..168M)  

48007 (2001 BH67)          Discovered 2001-Jan-30 by LINEAR at Socorro
Reference: 20020921/Numbers.arcLast Updated: 2004-04-19

Alternate Designations
 2001 BH67 = 1979 HE1 
Ephemeris | Orbit Diagram | Orbital Elements | Mission Design | Physical Parameters | Discovery Circumstances ]
ABOUT SSD CREDITS/AWARDS PRIVACY/COPYRIGHT GLOSSARY LINKS
FirstGov
(server date/time)  
NASA Home Page
Site Manager:   Ryan S. Park
Webmaster  Alan B. Chamberlin